Regional Weather Roundup
Issued by NWS Bismarck, ND

Home | Current Version | Previous Version | Text Only | Print | Product List | Glossary On
Versions: 1 2 3 4 5 6 7 8 9 10 11 12 13 14 15 16 17 18 19 20 21 22 23 24 25 26 27 28 29 30 31 32 33 34 35 36 37 38 39 40 41 42 43 44 45 46 47 48 49 50
000
ASUS43 KBIS 300720
RWRBIS

NWR BROADCAST TEXT
NATIONAL WEATHER SERVICE BISMARCK ND
200 AM CDT MON MAR 30 2015

NOTE: "FAIR" INDICATES FEW OR NO CLOUDS BELOW 12,000 FEET WITH NO
SIGNIFICANT WEATHER AND/OR OBSTRUCTIONS TO VISIBILITY.


CITY           SKY/WX    TMP DP  RH WIND       PRES   REMARKS
WILLISTON      CLOUDY    45  34  65 SW9       29.85F
MINOT          PTCLDY    39  31  72 S6        29.85F
MINOT AFB      PTCLDY    37  35  92 S6        29.84F
BISMARCK       PTCLDY    38  30  73 CALM      29.92F
DICKINSON      CLEAR     38  28  67 SW6       29.91S
GARRISON         N/A     36  30  79 S7        29.87F
HETTINGER ARPT CLEAR     32  26  78 CALM      29.97S
JAMESTOWN      PTCLDY    31  28  89 S3        29.91S
BEACH          FAIR      37  30  75 SW10      29.93F
CARRINGTON     PTSUNNY   32  32 100 SW6       29.91S
CROSBY         CLOUDY    45  37  76 SW12      29.81F
HARVEY         CLOUDY    36  32  87 CALM      29.89F
HAZEN          FAIR      32  28  86 CALM      29.90F
LINTON         FAIR      39  32  75 S9        29.94F
MANDAN         FAIR      39  28  65 SW10      29.93S
OAKES            N/A     36  30  80 W3        29.95R
TIOGA          CLOUDY    46  34  61 SW10      29.86F
WATFORD CITY   FAIR      37  32  81 SW7       29.86F
$$

CITY           SKY/WX    TMP DP  RH WIND       PRES   REMARKS
GRAND FORKS    CLEAR     32  27  81 W9        29.89F
GRAND FORKS AF CLEAR     31  27  85 W7        29.89S
DEVILS LAKE    CLOUDY    34  28  80 CALM      29.88F
FARGO          CLEAR     35  26  69 SW6       29.92F
CANDO          CLOUDY    32  32 100 CALM      29.88F
CAVALIER       FAIR      34  28  80 NW5       29.87F
GWINNER        SUNNY     37  32  81 W10         N/A
ROLLA          CLOUDY    32  32 100 SW3       29.87F
WALHALLA         N/A     36  28  75 CALM      29.87F
$$

CITY           SKY/WX    TMP DP  RH WIND       PRES   REMARKS
ABERDEEN       MOCLDY    34  26  72 SW5       29.97F
MOBRIDGE       CLOUDY    42  32  67 SE10      29.94F
BUFFALO          N/A     39  27  62 W8        29.92S
RAPID CITY     CLEAR     44  27  51 SW3       30.01F
GLASGOW        PTCLDY    46  31  55 W15       29.88S
SIDNEY         PTCLDY    39  32  75 S9        29.88F
WOLF POINT     PTCLDY    41  32  70 SW5       29.88F
GLENDIVE         N/A     39  30  70 S9        29.91F
MILES CITY     PTCLDY    39  29  67 S8        29.96S
BAKER          PTCLDY    40  28  62 NW5       29.96F
$$

CITY           SKY/WX    TMP DP  RH WIND       PRES   REMARKS
BILLINGS       PTCLDY    50  22  33 W12       30.03S
GREAT FALLS    CLOUDY    51  30  44 SW20      30.03R
REGINA         PTCLDY    39  36  87 SE8       29.76F
ESTEVAN        CLOUDY    36  32  87 S7        29.80F
$$



USA.gov is the U.S. government's official web portal to all federal, state and local government web resources and services.